Temperature
19 19 19 19 19 19 20 20 19 20 20 19 19 19 19 19 19 19 19 19 19 19 19 19 19 19 19 19 19 19 19 18 18 18 18 18 18 18 18 18 18 18 18
20 19 19 19 19 19 20 19 19 19 19 19 19 19 19 19 19 19 19 19 19 19 19 19 19 19 19 19 19 19 18 18 18 18 18 18 18 18 18 18 18 18 18
20 20 19 19 19 19 20 19 19 19 19 19 19 19 19 19 19 19 19 19 19 19 19 19 19 19 19 19 18 18 18 18 18 18 18 18 18 18 18 18 18 18 18
20 20 20 19 19 19 20 19 19 19 19 19 19 19 19 19 19 19 19 19 19 19 19 19 19 19 19 18 18 18 18 18 18 18 18 18 18 18 18 18 18 18 18
20 20 20 19 19 19 19 19 19 19 19 19 19 19 19 19 19 19 19 19 19 19 19 19 19 19 18 18 18 18 18 18 18 18 18 18 18 18 18 18 18 18 18
20 20 20 19 19 19 19 19 19 19 19 19 19 19 19 19 19 19 19 19 19 19 19 19 19 18 18 18 18 18 18 18 18 18 18 18 18 18 18 18 18 18 18
20 20 20 19 20 19 19 19 19 19 19 19 19 19 19 19 19 19 19 19 19 19 19 18 18 18 18 18 18 18 18 18 18 18 18 18 18 18 18 18 18 18 18
20 20 20 19 19 19 19 19 19 19 19 19 19 19 19 19 19 19 19 19 19 19 18 18 18 18 18 18 18 18 18 18 18 18 18 18 18 18 18 18 18 18 18
20 20 20 19 19 19 19 19 19 19 19 19 19 19 19 19 19 19 19 19 19 19 19 18 18 18 18 18 18 18 18 18 18 18 18 18 18 18 18 18 18 18 18
20 20 20 19 19 19 19 19 19 19 19 19 19 19 19 19 19 19 19 19 19 19 19 18 18 18 18 18 18 18 18 18 18 18 18 18 18 18 18 18 18 18 17
20 20 20 20 19 19 19 19 19 19 19 19 19 19 19 19 19 19 19 19 19 19 18 18 18 18 18 18 18 18 18 18 18 18 18 18 18 18 18 18 18 18 18
20 20 20 20 19 19 19 19 19 19 19 19 19 19 19 19 19 19 19 18 18 18 18 18 18 18 18 18 18 18 18 18 18 18 18 18 18 18 18 18 18 18 18
20 20 20 20 19 19 19 19 19 19 19 19 19 19 19 19 19 18 18 18 18 18 18 18 18 18 18 18 18 18 18 18 18 18 18 18 18 18 18 18 18 18 17
20 20 20 20 19 19 19 19 19 19 19 19 19 19 19 19 19 19 19 18 18 18 18 18 18 18 18 18 18 18 18 18 18 18 18 18 18 18 18 18 18 18 18
20 20 20 20 19 19 19 19 19 19 19 19 19 19 19 19 19 19 19 18 18 18 18 18 18 18 18 18 18 18 18 18 18 18 18 18 18 18 18 18 18 18 18
20 20 20 20 19 19 19 19 19 19 19 19 19 19 19 18 18 18 19 18 18 18 18 18 18 18 18 18 18 18 18 18 18 18 18 18 18 18 18 18 18 18 18
20 20 20 19 19 19 19 19 19 19 19 19 19 18 18 18 18 18 18 18 18 18 18 18 18 18 18 18 18 18 18 18 18 18 18 18 18 18 18 18 18 18 18
20 20 20 19 19 19 19 19 19 19 19 19 18 18 18 18 18 18 18 18 18 18 18 18 18 18 18 18 18 18 18 18 18 18 18 18 18 18 18 18 18 18 18
20 20 20 19 19 19 19 19 19 19 19 19 18 18 18 18 18 18 18 18 18 18 18 18 18 18 18 18 18 18 18 18 18 18 18 18 18 18 18 18 18 18 18
20 20 20 19 19 19 19 19 19 19 18 18 18 18 18 18 18 18 18 18 18 18 18 18 18 18 18 18 18 18 18 18 18 18 18 18 18 18 18 18 18 18 18
20 20 20 20 19 19 19 19 19 19 19 18 18 18 18 18 18 18 18 18 18 18 18 18 17 18 18 18 18 18 18 18 18 18 18 18 18 18 18 18 18 18 18
20 20 20 20 19 19 19 19 19 19 19 19 18 18 18 18 18 18 18 18 18 18 18 17 17 17 18 17 17 17 17 18 18 18 18 18 18 18 18 18 18 18 18
20 20 20 20 20 19 19 19 19 19 19 18 19 18 18 18 18 18 18 18 17 17 17 17 17 17 17 17 17 17 17 17 17 18 18 18 18 18 18 18 18 18 17
20 20 20 20 20 19 19 19 19 19 19 19 19 19 18 18 18 18 18 18 17 17 17 17 17 17 17 17 17 17 17 17 16 17 17 18 18 18 18 18 18 17 17
20 20 20 20 20 20 19 19 19 19 19 19 18 18 18 18 18 18 18 18 17 17 17 17 17 17 17 17 17 17 17 17 17 16 16 17 17 18 17 17 17 17 17
20 20 20 20 20 20 19 19 19 19 19 19 19 19 18 18 18 18 18 17 17 17 17 17 17 17 17 17 17 17 17 16 16 16 16 16 17 17 17 17 17 17 17
Wind_Speed
2 4 9 12 14 14 15 17 18 18 18 18 18 19 20 20 20 19 18 17 16 16 16 15 14 14 14 14 14 14 14 14 14 13 13 13 13 13 13 13 13 12 14
4 7 10 14 15 14 15 16 17 18 18 18 18 19 19 19 19 18 17 16 16 15 15 14 14 14 14 14 14 14 14 13 13 13 13 12 12 12 12 12 12 12 13
7 8 11 14 15 15 16 16 17 17 18 18 18 18 18 18 18 18 16 15 15 15 14 14 14 14 13 13 13 13 13 12 12 12 12 10 10 11 11 12 12 12 12
8 8 10 14 14 15 15 16 16 17 17 18 18 18 18 17 17 16 16 14 14 14 13 13 13 13 12 12 12 12 11 10 11 11 9 8 8 10 11 11 12 12 12
6 8 10 14 14 15 15 15 16 16 17 17 17 17 17 17 16 15 14 14 13 13 12 12 12 12 11 11 10 10 9 9 10 8 7 7 8 10 10 10 11 11 11
5 7 10 13 13 14 14 15 15 16 16 16 16 16 16 15 15 14 13 13 12 12 11 11 11 11 10 10 9 8 8 8 8 7 6 6 7 9 10 10 10 11 11
5 6 9 12 12 13 14 14 14 15 15 15 14 14 14 14 13 13 12 12 11 10 10 9 9 9 9 8 8 7 7 7 7 6 6 6 6 8 9 10 10 10 10
6 5 8 11 12 12 12 13 14 13 13 13 13 13 13 12 12 11 11 11 10 10 9 8 8 7 7 7 6 6 6 5 5 5 5 6 6 8 9 9 9 10 10
5 5 5 7 9 10 11 12 12 12 12 12 12 12 11 10 10 10 10 9 9 8 8 7 7 6 6 6 5 5 5 5 5 5 5 5 7 8 9 9 10 10 10
5 4 4 5 6 7 8 10 11 11 11 11 11 10 9 8 8 8 8 8 8 7 7 6 6 6 5 4 4 4 5 4 4 5 5 6 8 9 9 9 10 10 10
5 4 4 4 5 5 6 7 8 9 10 9 9 9 7 4 4 4 6 7 6 6 6 6 5 5 4 3 3 4 3 3 4 4 5 7 9 10 10 10 10 10 10
5 4 3 4 4 5 4 4 5 6 7 6 5 5 4 3 3 3 4 5 5 5 5 5 4 4 3 2 2 2 2 3 4 4 6 8 9 10 10 11 11 11 10
5 4 4 4 4 4 3 4 4 4 5 5 5 4 4 2 2 1 1 2 3 3 2 3 2 1 1 1 2 2 3 3 3 4 5 8 9 10 10 11 11 11 11
5 4 4 4 4 4 3 3 3 3 3 3 4 4 3 1 1 1 1 1 1 1 1 1 1 1 2 2 3 3 3 2 3 4 6 8 9 10 11 11 12 11 11
5 4 3 4 4 4 3 2 3 3 3 4 4 4 4 2 1 1 1 2 2 2 2 2 2 2 2 2 3 3 3 3 4 4 6 8 9 10 11 12 11 11 11
5 4 4 4 4 4 3 3 2 3 3 3 4 4 4 4 2 2 1 2 2 3 3 3 3 2 2 2 2 3 3 4 4 5 5 7 8 9 10 11 11 12 12
4 4 4 4 4 4 3 3 3 3 4 3 3 5 5 4 3 2 2 2 2 2 2 1 2 2 1 1 2 2 3 3 3 4 5 5 7 8 10 11 12 12 12
4 4 3 4 4 4 3 3 2 3 3 3 4 4 5 5 5 3 2 2 2 1 1 1 1 1 1 1 1 2 2 2 3 4 4 5 6 6 8 10 10 11 11
4 4 4 3 3 3 3 2 2 3 3 3 4 4 5 5 5 4 2 2 1 1 1 1 1 1 1 1 1 1 1 2 3 3 3 4 5 6 6 8 9 10 11
4 4 4 3 3 3 2 2 1 1 1 2 3 5 6 5 5 4 2 2 2 1 1 1 1 0 0 1 1 2 2 2 2 3 3 3 4 5 5 6 7 7 10
4 4 4 3 3 3 2 2 2 2 1 1 3 4 5 5 5 4 3 2 2 2 2 2 1 1 0 1 1 2 2 1 1 2 2 2 3 3 4 5 6 6 7
5 5 4 3 3 3 3 2 2 1 1 2 2 2 4 5 5 5 4 3 2 2 2 2 2 1 1 1 1 1 2 3 2 1 1 2 3 2 3 5 6 6 6
7 6 6 5 3 3 2 2 1 1 1 0 1 1 2 4 4 4 4 3 3 3 3 3 3 3 2 1 1 2 1 2 2 2 2 2 2 3 4 5 6 6 6
8 6 5 4 4 3 3 3 3 2 2 2 1 1 1 1 1 2 3 3 3 3 4 4 3 3 3 2 1 1 2 2 1 3 2 2 3 4 4 4 5 6 7
7 6 5 4 4 3 3 3 3 2 2 1 0 1 1 1 1 0 1 2 3 3 4 4 3 4 3 3 2 2 1 1 2 2 4 4 3 4 4 5 5 5 7
6 6 5 5 4 4 4 3 4 3 2 1 0 0 1 0 0 0 0 1 2 3 3 4 4 4 4 4 3 3 2 2 2 3 4 5 5 4 4 4 5 5 6
Wind_Direction
166 153 142 139 133 127 125 125 125 126 126 127 129 129 132 133 133 132 131 132 133 132 130 129 128 127 127 125 126 127 127 126 125 125 126 126 124 123 123 122 121 119 120
141 137 128 131 132 128 126 125 125 126 127 128 130 130 132 134 134 134 134 134 134 133 133 131 128 127 126 127 129 129 127 127 126 128 130 128 127 126 127 128 127 127 126
126 129 129 126 129 130 128 128 127 128 128 130 132 132 133 135 137 137 136 136 136 134 133 132 130 128 127 128 131 130 130 130 129 129 128 127 130 133 134 135 134 132 130
128 131 134 133 132 131 130 130 130 128 129 130 133 134 135 136 138 138 138 138 136 134 134 134 133 131 130 130 131 131 132 131 130 128 126 133 138 139 140 139 139 138 136
123 133 140 137 135 133 132 133 132 131 131 133 134 136 137 137 138 139 141 140 138 138 137 137 135 133 133 133 130 130 135 136 133 127 128 136 141 146 147 146 145 144 142
123 136 142 139 137 135 134 135 137 136 136 137 138 138 140 140 140 142 144 143 142 141 140 140 138 137 137 137 135 135 136 140 135 131 136 144 151 155 155 155 152 151 150
129 136 144 141 140 138 137 138 140 140 141 141 142 142 142 144 145 147 148 147 147 146 146 145 143 143 144 143 144 144 142 138 139 143 153 159 166 166 163 162 160 158 158
127 129 142 147 145 143 142 143 142 142 144 144 146 147 146 146 148 149 151 151 152 153 154 153 152 150 148 150 152 153 152 150 150 162 164 171 178 177 172 170 169 167 168
113 115 126 144 147 146 146 147 146 144 145 147 148 148 147 150 152 154 155 158 160 161 162 163 163 162 162 164 166 166 167 166 159 171 175 183 186 184 181 180 181 178 177
104 106 106 122 133 139 144 146 146 144 146 148 149 148 152 156 160 163 164 170 172 172 173 173 174 176 177 177 180 180 176 170 168 178 187 195 193 193 193 191 189 189 188
119 110 107 106 115 123 136 150 150 147 144 145 148 152 150 140 151 169 180 183 185 186 185 186 188 188 188 189 188 188 179 175 179 193 200 202 200 202 202 199 197 198 197
147 138 123 120 116 124 143 138 136 137 138 136 134 137 134 134 159 179 200 203 202 200 196 195 200 196 188 187 195 197 199 194 199 204 212 212 208 208 208 206 204 205 206
154 148 139 130 125 125 124 125 126 133 136 143 146 149 144 147 186 208 235 244 216 206 209 203 208 206 206 218 221 211 207 201 205 214 220 220 216 213 213 211 209 210 212
147 151 143 137 134 132 130 130 133 134 141 154 165 163 156 161 204 226 243 248 236 224 227 228 232 230 236 226 211 212 214 210 223 220 225 225 222 219 218 216 213 213 217
153 155 151 144 143 142 136 152 152 152 162 171 176 180 179 179 209 227 238 235 231 233 228 222 224 222 234 242 223 214 221 228 231 227 228 228 226 223 225 222 215 215 220
161 160 150 145 148 146 153 162 163 171 177 177 186 196 193 195 203 210 223 229 231 224 223 220 225 225 229 220 220 222 227 230 228 227 228 230 231 229 226 223 220 220 222
162 150 150 158 151 153 163 174 173 182 181 188 205 204 204 206 206 206 210 218 228 221 211 227 235 216 215 208 213 222 228 230 227 232 233 230 232 232 230 227 225 225 226
153 149 156 160 153 163 175 179 170 178 182 201 214 213 215 213 209 202 203 218 224 192 169 180 182 161 192 208 231 241 236 230 234 239 236 233 228 228 234 234 231 230 230
164 154 152 151 156 169 175 171 168 175 187 206 213 217 221 217 213 204 207 225 197 153 146 197 159 172 188 252 259 249 246 241 242 242 234 233 231 228 231 234 235 234 234
162 154 154 148 147 145 139 129 135 172 205 210 220 223 219 216 213 209 217 222 185 157 184 194 176 189 207 234 282 299 282 260 246 243 241 234 232 232 231 232 235 236 238
157 156 161 155 160 148 152 159 173 204 221 238 239 228 221 218 211 202 216 207 183 187 204 194 168 151 59 95 57 342 327 306 259 247 241 239 243 244 243 237 236 237 242
175 177 176 175 171 171 178 178 173 174 203 227 261 246 227 219 210 205 198 200 195 198 208 197 176 165 170 138 133 55 344 340 325 275 246 239 246 244 248 250 241 238 238
189 189 190 192 184 180 171 138 107 75 37 21 299 260 247 231 213 203 200 196 195 199 216 219 196 187 201 200 164 162 176 264 308 292 255 250 250 242 247 247 245 245 242
200 194 190 184 182 181 158 151 155 170 199 236 259 246 258 225 201 203 200 199 204 205 215 222 204 193 189 208 211 204 208 198 232 298 297 275 269 260 259 257 253 250 247
191 192 194 182 183 176 165 170 178 197 209 228 341 350 339 40 79 156 187 192 214 215 218 219 208 197 194 201 203 198 211 222 215 236 286 301 293 276 267 257 252 248 244
186 190 187 182 192 184 176 179 185 195 194 172 216 322 314 335 337 337 224 220 225 227 228 227 218 206 206 207 208 202 201 205 213 226 254 279 286 289 277 261 250 244 241
Height
1500 1499 1498 1497 1501 1504 1506 1508 1509 1510 1512 1514 1516 1517 1519 1522 1524 1526 1528 1530 1532 1534 1536 1538 1540 1542 1543 1545 1546 1547 1549 1550 1552 1553 1554 1555 1556 1557 1557 1558 1559 1560 1561
1500 1500 1497 1496 1502 1505 1508 1510 1511 1513 1514 1516 1518 1520 1522 1524 1526 1528 1530 1532 1534 1536 1538 1540 1541 1543 1545 1546 1547 1549 1550 1552 1553 1554 1555 1556 1557 1558 1559 1559 1560 1561 1562
1502 1502 1502 1503 1506 1508 1510 1512 1514 1515 1517 1519 1520 1522 1524 1526 1528 1530 1532 1534 1536 1538 1539 1541 1543 1544 1546 1547 1549 1550 1552 1553 1554 1555 1556 1557 1558 1559 1560 1561 1561 1562 1563
1504 1505 1506 1507 1509 1511 1512 1514 1516 1518 1519 1521 1523 1524 1526 1528 1530 1532 1534 1536 1538 1539 1541 1542 1544 1546 1547 1549 1550 1552 1553 1555 1556 1557 1557 1558 1559 1560 1561 1562 1563 1564 1565
1507 1508 1509 1510 1512 1513 1515 1516 1518 1520 1521 1523 1525 1527 1528 1530 1532 1534 1536 1537 1539 1540 1542 1544 1545 1547 1549 1550 1552 1553 1554 1555 1556 1557 1558 1559 1560 1561 1562 1563 1564 1565 1565
1509 1510 1511 1513 1514 1516 1517 1519 1520 1522 1523 1525 1527 1529 1530 1532 1534 1535 1537 1539 1540 1542 1543 1545 1547 1548 1550 1551 1553 1554 1555 1556 1557 1558 1559 1560 1561 1562 1563 1563 1564 1565 1566
1511 1512 1513 1515 1516 1518 1519 1521 1522 1524 1525 1527 1529 1530 1532 1534 1536 1537 1539 1540 1542 1543 1545 1546 1548 1549 1550 1552 1553 1555 1556 1557 1558 1559 1560 1561 1561 1562 1563 1564 1565 1566 1567
1512 1514 1516 1517 1519 1520 1521 1523 1524 1526 1527 1529 1530 1532 1534 1535 1537 1539 1540 1541 1543 1544 1546 1547 1548 1550 1551 1553 1554 1555 1556 1557 1558 1559 1560 1561 1562 1563 1563 1564 1565 1566 1567
1514 1516 1517 1519 1520 1522 1523 1524 1526 1527 1529 1530 1532 1533 1535 1537 1538 1540 1541 1542 1544 1545 1546 1548 1549 1550 1552 1553 1555 1556 1557 1558 1559 1559 1560 1561 1562 1563 1563 1564 1565 1566 1567
1516 1517 1519 1520 1522 1523 1525 1526 1527 1528 1530 1532 1533 1535 1536 1538 1539 1541 1542 1543 1544 1545 1547 1548 1549 1551 1552 1553 1555 1556 1557 1558 1559 1560 1560 1561 1562 1563 1563 1564 1565 1566 1567
1517 1518 1520 1521 1523 1524 1526 1527 1528 1530 1531 1533 1534 1536 1537 1539 1540 1541 1542 1544 1545 1546 1547 1548 1549 1551 1552 1553 1555 1556 1557 1558 1559 1560 1560 1561 1562 1563 1563 1564 1565 1566 1566
1518 1520 1521 1523 1524 1526 1527 1528 1530 1531 1532 1534 1535 1537 1538 1539 1541 1542 1543 1544 1545 1546 1547 1548 1550 1551 1552 1553 1554 1555 1556 1557 1558 1559 1560 1561 1562 1562 1563 1564 1564 1565 1565
1519 1521 1523 1524 1525 1526 1528 1529 1530 1532 1533 1535 1536 1538 1539 1540 1541 1542 1543 1544 1544 1545 1547 1548 1549 1550 1551 1552 1553 1555 1556 1557 1558 1559 1560 1560 1561 1562 1562 1563 1563 1564 1565
1521 1522 1524 1525 1526 1527 1529 1530 1531 1533 1534 1536 1537 1538 1539 1540 1541 1542 1543 1543 1544 1545 1547 1548 1549 1550 1550 1551 1552 1553 1555 1556 1557 1558 1559 1560 1560 1561 1562 1562 1562 1563 1563
1522 1524 1525 1526 1527 1528 1530 1531 1532 1533 1535 1536 1537 1538 1539 1540 1541 1542 1542 1543 1544 1545 1546 1547 1548 1549 1549 1550 1551 1552 1553 1555 1556 1557 1558 1559 1560 1560 1561 1561 1561 1561 1562
1523 1524 1526 1527 1528 1529 1530 1531 1533 1534 1535 1536 1538 1539 1539 1540 1541 1541 1542 1542 1543 1544 1545 1546 1547 1547 1548 1549 1550 1551 1552 1553 1555 1556 1557 1558 1558 1559 1559 1559 1560 1560 1560
1524 1525 1526 1527 1529 1530 1531 1532 1533 1534 1535 1536 1538 1539 1539 1540 1541 1541 1542 1542 1543 1544 1544 1545 1545 1546 1547 1547 1548 1550 1551 1552 1553 1554 1555 1556 1557 1557 1558 1558 1558 1558 1559
1524 1526 1527 1528 1529 1530 1531 1532 1533 1534 1535 1536 1538 1539 1539 1540 1540 1541 1541 1542 1542 1543 1543 1544 1544 1544 1545 1546 1547 1548 1549 1550 1551 1552 1553 1554 1554 1555 1555 1556 1556 1556 1557
1525 1526 1527 1528 1529 1531 1532 1532 1533 1534 1535 1536 1537 1538 1539 1540 1540 1540 1541 1541 1542 1542 1543 1543 1544 1544 1544 1545 1546 1547 1548 1548 1549 1550 1551 1551 1552 1553 1553 1554 1554 1554 1555
1525 1526 1527 1528 1529 1531 1531 1532 1533 1534 1535 1536 1536 1537 1538 1538 1539 1540 1540 1541 1541 1542 1542 1543 1543 1543 1544 1544 1545 1546 1547 1547 1547 1548 1548 1549 1549 1550 1550 1551 1551 1552 1552
1524 1525 1527 1528 1529 1530 1531 1531 1532 1533 1534 1534 1535 1536 1536 1537 1538 1538 1539 1540 1540 1540 1541 1542 1542 1542 1543 1544 1544 1544 1545 1545 1546 1546 1547 1547 1547 1548 1548 1548 1549 1549 1549
1523 1525 1526 1527 1528 1529 1530 1531 1532 1532 1533 1533 1534 1534 1534 1535 1536 1537 1537 1538 1539 1540 1540 1540 1541 1541 1542 1543 1543 1543 1543 1544 1544 1545 1545 1545 1545 1545 1546 1546 1546 1546 1547
1522 1523 1524 1526 1527 1528 1529 1530 1531 1532 1532 1532 1533 1532 1533 1533 1534 1535 1536 1537 1537 1538 1538 1539 1539 1540 1541 1542 1542 1543 1543 1542 1542 1542 1542 1543 1543 1543 1543 1543 1543 1543 1543
1520 1522 1523 1525 1526 1527 1528 1529 1530 1530 1530 1531 1531 1531 1531 1532 1532 1533 1534 1535 1535 1536 1537 1537 1537 1537 1539 1539 1540 1541 1542 1541 1542 1540 1540 1540 1540 1540 1540 1540 1540 1540 1540
1519 1520 1522 1524 1525 1526 1527 1528 1529 1529 1530 1530 1530 1530 1530 1531 1531 1532 1532 1533 1533 1534 1535 1535 1535 1535 1536 1537 1538 1539 1539 1540 1540 1539 1537 1537 1537 1537 1536 1536 1536 1536 1536
1517 1518 1520 1521 1523 1524 1526 1527 1527 1528 1529 1529 1529 1529 1529 1529 1530 1530 1531 1531 1531 1532 1532 1533 1533 1533 1534 1535 1536 1537 1537 1537 1537 1537 1536 1534 1533 1533 1532 1532 1532 1532 1532